Location: Agenbach
(47.2667°N, 11.4500°E)
Time: 07:19:35
(UTC+00:00)

STARLINK-44 - Pass Details

Date: 07 June 2020
Orbit: 434 x 436 km, 53.0° (Epoch: 05 July)

Event Time Altitude Azimuth Distance (km) Brightness Sun altitude
Exits shadow 00:50:14 10° 132° (SE) 1,573 5.8 -16.6°
Enters shadow 01:47:52 -72° 240° (WSW) 12,559 10.4 -11.8°
Maximum altitude 02:26:50 58° 146° (SSE) 512 3.4 -7.5°
